Weather History for KALW - July, 2013

Change the Weather History Date:

Monday, July 8, 2013

  Actual Average Record
Temperature  
Mean Temperature 78 °F -  
Max Temperature 90 °F 88 °F 109 °F (1985)
Min Temperature 66 °F 59 °F 47 °F (1981)
Cooling Degree Days 13    
Growing Degree Days 28 (Base 50)    
Moisture  
Dew Point 45 °F    
Average Humidity 34    
Maximum Humidity 56    
Minimum Humidity 15    
Precipitation  
Precipitation 0.00 in - - ()
Sea Level Pressure  
Sea Level Pressure 29.93 in    
Wind  
Wind Speed 11 mph (SSW)    
Max Wind Speed 15 mph    
Max Gust Speed 18 mph    
Visibility 10 miles    
Events      
Averages and records for this station are not official NWS values.
T = Trace of Precipitation, MM = Missing Value Source: NWS Daily Summary

Daily Weather History Graph

Daily Weather History Graph

Search for Another Location

Airport or City:

Trip Planner

Search our weather history database for the weather conditions in past years. The results will help you decide how hot, cold, wet, or windy it might be!

Date:

Astronomy

Jul. 08, 2013 Rise Set
Actual Time 5:10 AM PDT 8:45 PM PDT
Civil Twilight 4:33 AM PDT 9:22 PM PDT
Nautical Twilight 3:42 AM PDT 10:13 PM PDT
Astronomical Twilight 2:35 AM PDT 11:19 PM PDT
Moon 5:50 AM PDT (7/8) 8:43 PM PDT (7/8)
Length of Visible Light 16h 49m
Length of Day
15h 34m
New Moon, 0% of the Moon is Illuminated
Jul 8
New Moon
Jul 15
First Quarter
Jul 22
Full
Jul 29
Last Quarter
Aug 6
New

Hourly Weather History & Observations

Time (PDT) Temp. Dew Point Humidity Pressure Visibility Wind Dir Wind Speed Gust Speed Precip Events Conditions
12:53 AM 72.0 °F 45.0 °F 38% 29.81 in 10.0 mi South 12.7 mph - N/A   Clear
1:53 AM 71.1 °F 48.9 °F 45% 29.81 in 10.0 mi South 13.8 mph - N/A   Clear
2:53 AM 70.0 °F 51.1 °F 51% 29.83 in 10.0 mi South 13.8 mph - N/A   Clear
3:53 AM 69.1 °F 51.1 °F 53% 29.85 in 10.0 mi South 15.0 mph - N/A   Clear
4:53 AM 66.0 °F 50.0 °F 56% 29.88 in 10.0 mi South 11.5 mph - N/A   Partly Cloudy
5:53 AM 66.0 °F 48.9 °F 54% 29.90 in 10.0 mi South 10.4 mph - N/A   Clear
6:53 AM 68.0 °F 48.0 °F 49% 29.92 in 10.0 mi South 12.7 mph - N/A   Clear
7:53 AM 71.1 °F 48.9 °F 45% 29.94 in 10.0 mi South 13.8 mph - N/A   Clear
8:53 AM 73.0 °F 48.9 °F 42% 29.95 in 10.0 mi South 11.5 mph - N/A   Clear
9:53 AM 75.9 °F 48.0 °F 37% 29.97 in 10.0 mi SSW 9.2 mph - N/A   Clear
10:53 AM 78.1 °F 46.9 °F 33% 29.97 in 10.0 mi Variable 6.9 mph - N/A   Clear
11:53 AM 81.0 °F 48.0 °F 31% 29.97 in 10.0 mi West 11.5 mph 17.3 mph N/A   Clear
12:53 PM 82.9 °F 46.9 °F 28% 29.96 in 10.0 mi Variable 5.8 mph 16.1 mph N/A   Clear
1:53 PM 86.0 °F 44.1 °F 23% 29.96 in 10.0 mi West 11.5 mph 18.4 mph N/A   Clear
2:53 PM 87.1 °F 39.9 °F 19% 29.95 in 10.0 mi SW 6.9 mph 17.3 mph N/A   Clear
3:53 PM 89.1 °F 39.9 °F 18% 29.94 in 10.0 mi WSW 12.7 mph 17.3 mph N/A   Clear
4:53 PM 89.1 °F 37.9 °F 16% 29.94 in 10.0 mi West 8.1 mph - N/A   Clear
5:53 PM 90.0 °F 37.0 °F 15% 29.94 in 10.0 mi West 10.4 mph 16.1 mph N/A   Clear
6:53 PM 88.0 °F 39.9 °F 18% 29.94 in 10.0 mi Calm Calm - N/A   Clear
7:53 PM 86.0 °F 41.0 °F 20% 29.95 in 10.0 mi WNW 5.8 mph - N/A   Clear
8:34 PM 80.6 °F 39.2 °F 23% 29.98 in 2.5 mi North 3.5 mph - N/A   Haze
8:42 PM 78.8 °F 39.2 °F 24% 29.99 in 8.0 mi North 4.6 mph - N/A   Clear
8:53 PM 78.1 °F 42.1 °F 28% 29.97 in 10.0 mi East 6.9 mph - N/A   Clear
9:53 PM 73.0 °F 46.9 °F 39% 29.98 in 10.0 mi East 8.1 mph - N/A   Clear
10:53 PM 73.0 °F 45.0 °F 37% 29.99 in 10.0 mi East 8.1 mph - N/A   Clear
11:53 PM 70.0 °F 45.0 °F 41% 30.00 in 10.0 mi ESE 4.6 mph - N/A   Clear